Location: Newark
(12.4436°N, 0.6167°W)
Time: 19:43:12
(UTC+00:00)

Vanguard 2 - Pass Details

Date: 16 December 2019
Orbit: 553 x 2938 km, 32.9° (Epoch: 21 January)

Event Time Altitude Azimuth Distance (km) Brightness Sun altitude
Rises 23:11:40 0° 267° (W) 4,407 - -74.5°
Reaches altitude 10° 23:14:25 10° 274° (W) 3,716 - -74.9°
Maximum altitude 23:24:05 43° 343° (NNW) 2,749 - -76.4°
Drops below altitude 10° 23:38:50 10° 50° (NE) 5,531 - -78.2°
Sets 23:44:02 0° 57° (ENE) 6,713 - -78.6°
